Tracking 17857 objects as of 1-October-2016
HD Live streaming from Space Station
objects crossing your sky now

COSMOS 1626

Track COSMOS 1626 now!
10-day predictions
COSMOS 1626 is classified as:


NORAD ID: 15494
Int'l Code: 1985-009A
Perigee: 507.1 km
Apogee: 508.6 km
Inclination: 82.5 °
Period: 94.6 minutes
Semi major axis: 6878 km
RCS: 7.281 m2 (large)
Launch date: January 24, 1985
Source: Commonwealth of Independent States (former USSR) (CIS)
Launch site: PLESETSK MISSILE AND SPACE COMPLEX (PKMTR)
Your satellite tracking list
Your tracking list is empty





NASA's NSSDC Master Catalog

Two Line Element Set (TLE):
1 15494U 85009A   16274.19814455  .00002358  00000-0  10283-3 0  9997
2 15494  82.4808 149.6444 0001093 202.3366 278.0744 15.21698482729233
Source of the keplerian elements: AFSPC

N2YO: 1055